Tracking 19475 objects as of 18-Jan-2019
HD Live streaming from Space Station
objects crossing your sky now

GLOBALSTAR M030

Track GLOBALSTAR M030 now!
10-day predictions
GLOBALSTAR M030 is classified as:


NORAD ID: 25854
Int'l Code: 1999-037D
Perigee: 1,892.2 km
Apogee: 1,899.2 km
Inclination: 52.0 °
Period: 124.7 minutes
Semi major axis: 8266 km
RCS: 2.6928 m2 (large)
Launch date: July 10, 1999
Source: Globalstar (GLOB)
Launch site: AIR FORCE EASTERN TEST RANGE (AFETR)
aabbcc
Your satellite tracking list
Your tracking list is empty




NASA's NSSDC Master Catalog

Two Line Element Set (TLE):
1 25854U 99037D   19017.87850406 -.00000035 +00000-0 +84990-3 0  9990
2 25854 051.9853 246.1738 0004240 142.5637 217.5476 11.55057862879361
Source of the keplerian elements: AFSPC